Voltar ao catálogo

STARLINK-5274

AtivoComunicaçõesVLEO
NORAD 55395·PAYLOAD·🇺🇸 United States

Lançado Jan 31, 2023 de Vandenberg Space Force Base

Loading…

Próximas Passagens (próximas 24 horas)

TLE

AtualizadoSource: CelesTrak SupGP

Época: Sep 14, 2026, 22:04 UTC

1 55395C 23014E   26257.91993056  .00028712  00000+0  24066-2 0  2577
2 55395  69.9994 307.1688 0003787 271.3208 113.7556 14.98308424    18

Acompanhe STARLINK-5274 em tempo real com AllMySat

Download on the App Store